Regional Weather Roundup
Issued by NWS Jackson, KY

Home | Current Version | Previous Version | Graphics & Text | Print | Product List | Glossary On
Versions: 1 2 3 4 5 6 7 8 9 10 11 12 13 14 15 16 17 18 19 20 21 22 23 24 25 26 27 28 29 30 31 32 33 34 35 36 37 38 39 40 41 42 43 44 45 46 47 48 49 50
000
ASUS43 KJKL 030510
RWRJKL

EAST KENTUCKY HOURLY WEATHER ROUNDUP
NATIONAL WEATHER SERVICE JACKSON KY
100 AM EDT FRI JUL 03 2015

NOTE: "FAIR" INDICATES FEW OR NO CLOUDS BELOW 12,000 FEET WITH
NO SIGNIFICANT WEATHER AND/OR OBSTRUCTIONS TO VISIBILITY.

* THESE REPORTS ARE NOT UNDER NWS QUALITY CONTROL AND MAY NOT
  REPORT WEATHER SUCH AS PRECIPITATION AND FOG.

KYZ079-080-083-085-087-088-110-112-115-119-120-030600
...EASTERN KENTUCKY...

CITY           SKY/WX    TMP DP  RH WIND       PRES   REMARKS
JACKSON        CLOUDY    68  65  90 VRB3      29.92F
LONDON         LGT RAIN  71  67  87 E5        29.90F
SOMERSET*      CLOUDY    70  70 100 CALM      29.91R
MONTICELLO*    CLOUDY    70  70 100 CALM      29.92R FOG
MIDDLESBORO*   CLOUDY    70  70 100 CALM      29.92F
HARLAN APT*      N/A     68  68 100 CALM      29.94F
HAZARD APT*    CLOUDY    68  68 100 CALM      29.92F FOG
BLACK MTN*       N/A     63  63 100 S8          N/A
PIKEVILLE APT* CLOUDY    66  66 100 CALM      29.94S
BIG SANDY*     MOCLDY    69  68  99 CALM      29.92F
MOREHEAD APT*  CLOUDY    68  66  94 VRB7      29.93S FOG
$$

KYZ035-036-041-042-044-050-067-078-099-030600
...CENTRAL KENTUCKY...

CITY           SKY/WX    TMP DP  RH WIND       PRES   REMARKS
MT STERLING*   LGT RAIN  68  68 100 E6        29.91S
FLEMING/MASON* MOCLDY    64  64 100 E6        29.93R FOG
DANVILLE*      CLOUDY    70  68  94 CALM      29.90S
RICHMOND*      CLOUDY    70  68  94 CALM      29.88F
LEXINGTON      CLOUDY    71  68  90 SE5       29.89S
FRANKFORT      CLOUDY    71  68  90 E3        29.88R
$$

KYZ091>093-OHZ055-061-077-WVZ005-015-034-035-042-030600
...SOUTHERN OHIO/WEST VIRGINIA...

CITY           SKY/WX    TMP DP  RH WIND       PRES   REMARKS
COVINGTON      CLOUDY    70  67  90 NE8       29.90F FOG
COLUMBUS       PTCLDY    64  56  75 NE7       29.95S
DAYTON         MOCLDY    65  57  75 NE10      29.95F
WILMINGTON     CLOUDY    66  62  87 NE7       29.93F
HUNTINGTON     MOCLDY    66  66 100 E5        29.92R FOG
CHARLESTON     MOCLDY    65  63  93 CALM      29.93F FOG
PINEVILLE*     CLOUDY    67  67 100 MISG      30.02S FOG
BECKLEY        CLOUDY    64  60  87 SE5       30.00F
BLUEFIELD      CLOUDY    66  62  87 CALM      30.03S
$$

VAZ002-007-008-TNZ017-027-036-066-071-030600
...SOUTHWEST VIRGINIA/EAST TENNESSEE...

CITY           SKY/WX    TMP DP  RH WIND       PRES   REMARKS
WISE*          CLOUDY    68  64  88 S5        30.01F
JONESVILLE*      N/A    N/A N/A N/A MISG        N/A
ABINGDON*      CLOUDY    69  68  98 CALM      30.00S
BRISTOL        CLOUDY    68  66  93 CALM      29.96F
KNOXVILLE      LGT RAIN  71  69  93 W6        29.92R
OAK RIDGE      CLOUDY    72  70  93 CALM      29.93S
CROSSVILLE     HVY RAIN  67  65  93 W14       29.97S VSB 1/2
NASHVILLE      TSTM      74  73  97 S10       29.90R VSB 1
$$

...KEY TO REMARKS...
VSB - VISIBILITY IN MILES
WCI - WIND CHILL INDEX
HX  - HEAT INDEX

$$



USA.gov is the U.S. government's official web portal to all federal, state and local government web resources and services.